EA1BQO-1 Weather Reports


time (UTC)temp
F
wind
direction
speed
knots
gust
knots
rain 1hr
in
rain 24hr
in
rain mn
in
humidity
%
barometer
mb
20260506215903 50 37 0.0 0.9 0.00 0.00 0.00 78 1008.6
20260506214903 51 50 0.0 0.9 0.00 0.00 0.00 78 1008.7
20260506213903 51 119 0.0 1.7 0.00 0.00 0.00 78 1008.7
20260506212903 51 142 0.0 0.9 0.00 0.00 0.00 77 1008.7
20260506211903 51 140 0.0 0.9 0.00 0.00 0.00 76 1008.6
20260506210903 51 176 0.0 0.9 0.00 0.00 0.00 74 1008.5
20260506205903 51 181 0.0 1.7 0.00 0.00 0.00 73 1008.6
20260506204903 51 172 0.0 1.7 0.00 0.00 0.00 72 1008.6
20260506203903 52 133 0.0 0.9 0.00 0.00 0.00 70 1008.5
20260506202903 52 150 0.0 0.0 0.00 0.00 0.00 69 1008.4
20260506201903 53 161 0.0 0.9 0.00 0.00 0.00 67 1008.2
20260506200903 54 138 0.0 0.9 0.00 0.00 0.00 66 1008.1
20260506195903 54 181 0.0 0.9 0.00 0.00 0.00 65 1008.0
20260506194903 54 248 0.0 0.0 0.00 0.00 0.00 64 1008.0
20260506193903 55 252 0.0 0.9 0.00 0.00 0.00 62 1007.9
20260506192903 55 223 0.0 1.7 0.00 0.00 0.00 60 1007.8
20260506191903 56 237 0.0 2.6 0.00 0.00 0.00 57 1007.7
20260506190903 57 283 0.9 3.5 0.00 0.00 0.00 54 1007.8
20260506185903 58 292 0.0 4.3 0.00 0.00 0.00 50 1007.7
20260506184903 58 294 2.6 4.3 0.00 0.00 0.00 48 1007.6
20260506183903 57 214 0.0 5.2 0.00 0.00 0.00 46 1007.6
20260506182903 57 239 0.9 4.3 0.00 0.00 0.00 49 1007.7
20260506181903 58 252 0.0 3.5 0.00 0.00 0.00 47 1007.7
20260506180903 58 280 0.9 2.6 0.00 0.00 0.00 46 1007.6
20260506175903 59 186 0.9 5.2 0.00 0.00 0.00 44 1007.6
20260506174903 59 220 0.0 4.3 0.00 0.00 0.00 42 1007.6
20260506173903 59 228 0.9 5.2 0.00 0.00 0.00 41 1007.8
20260506172903 59 207 1.7 7.8 0.00 0.00 0.00 42 1007.8
20260506171903 60 212 3.5 10.4 0.00 0.00 0.00 41 1007.8
20260506170903 62 231 3.5 7.0 0.00 0.00 0.00 38 1007.8
20260506165903 62 257 2.6 7.8 0.00 0.00 0.00 33 1007.7
20260506164903 63 280 2.6 6.1 0.00 0.00 0.00 33 1007.5
20260506163903 63 253 1.7 4.3 0.00 0.00 0.00 31 1007.7
20260506162903 62 228 0.9 5.2 0.00 0.01 0.00 30 1007.6
20260506161903 63 255 2.6 7.0 0.00 0.01 0.00 31 1007.6
20260506160903 64 249 3.5 6.1 0.00 0.01 0.00 26 1007.7
20260506155903 65 243 1.7 7.8 0.00 0.01 0.00 26 1007.6
20260506154903 64 265 3.5 7.0 0.00 0.01 0.00 29 1007.8
20260506153902 64 269 2.6 7.0 0.00 0.01 0.00 28 1007.8
20260506152902 65 289 1.7 6.1 0.00 0.01 0.00 25 1007.9
20260506151902 65 257 3.5 7.0 0.00 0.01 0.00 25 1008.1
20260506150903 64 220 3.5 6.1 0.00 0.01 0.00 26 1008.0
20260506145902 64 227 0.9 5.2 0.00 0.01 0.00 26 1008.2
20260506144902 64 261 2.6 7.0 0.00 0.01 0.00 22 1008.1
20260506143902 65 261 3.5 7.8 0.00 0.01 0.00 23 1008.1
20260506142902 66 189 2.6 7.0 0.00 0.01 0.00 22 1008.2
20260506141902 65 229 2.6 7.0 0.00 0.01 0.00 22 1008.5
20260506140902 64 336 2.6 7.8 0.00 0.01 0.00 21 1008.6
20260506135902 66 230 2.6 7.8 0.00 0.01 0.00 22 1008.6
20260506134902 66 252 0.0 7.0 0.00 0.02 0.00 22 1008.6
20260506133902 66 250 2.6 7.0 0.00 0.03 0.00 23 1008.7
20260506132902 65 258 2.6 7.0 0.00 0.03 0.00 25 1008.7
20260506131902 65 300 1.7 7.0 0.00 0.03 0.00 21 1008.9
20260506130902 64 305 2.6 7.0 0.00 0.03 0.00 27 1009.0
20260506125902 64 225 2.6 5.2 0.00 0.03 0.00 26 1009.2
20260506124902 64 235 1.7 7.0 0.00 0.03 0.00 27 1009.2
20260506123902 63 275 2.6 6.1 0.00 0.03 0.00 30 1009.3
20260506122902 63 288 2.6 7.8 0.00 0.03 0.00 32 1009.5
20260506121902 63 296 0.9 6.1 0.00 0.03 0.00 29 1009.7
20260506120902 63 263 2.6 6.1 0.00 0.03 0.00 32 1009.7
20260506115902 62 269 0.0 5.2 0.00 0.03 0.00 34 1009.9
20260506114902 62 241 1.7 7.0 0.00 0.03 0.00 35 1010.0
20260506113902 61 211 2.6 4.3 0.00 0.03 0.00 38 1010.0
20260506112902 61 279 2.6 5.2 0.00 0.03 0.00 34 1010.3
20260506111902 61 210 1.7 7.0 0.00 0.03 0.00 41 1010.6
20260506110902 60 288 2.6 7.0 0.00 0.03 0.00 41 1010.5
20260506105902 60 194 0.0 7.0 0.00 0.03 0.00 45 1010.6
20260506104902 60 262 2.6 5.2 0.00 0.03 0.00 46 1010.6
20260506103902 59 250 2.6 6.1 0.00 0.03 0.00 45 1010.6
20260506102902 59 213 2.6 5.2 0.00 0.03 0.00 52 1010.8
20260506101902 57 256 2.6 5.2 0.00 0.03 0.00 55 1010.8
20260506100902 57 245 1.7 5.2 0.00 0.03 0.00 56 1010.7
20260506095902 55 244 0.9 4.3 0.00 0.03 0.00 61 1010.7
20260506094902 55 230 2.6 5.2 0.00 0.03 0.00 61 1010.8
20260506093902 55 226 1.7 4.3 0.00 0.03 0.00 60 1010.8
20260506092902 55 264 0.0 5.2 0.00 0.03 0.00 61 1010.8
20260506091902 56 252 2.6 5.2 0.00 0.03 0.00 62 1010.8
20260506090902 56 207 0.0 4.3 0.00 0.03 0.00 70 1010.9
20260506085902 54 277 0.0 6.1 0.00 0.03 0.00 73 1010.9
20260506084902 54 249 0.9 5.2 0.00 0.03 0.00 75 1010.9
20260506083902 53 264 0.0 5.2 0.00 0.03 0.00 82 1010.8
20260506082902 52 287 2.6 5.2 0.00 0.03 0.00 81 1010.9
20260506081902 52 296 0.0 4.3 0.00 0.03 0.00 86 1010.9
20260506080902 51 281 1.7 4.3 0.00 0.03 0.00 87 1011.0
20260506072902 47 25 0.0 3.5 0.00 0.03 0.00 99 1011.0
20260506071902 47 57 0.9 2.6 0.00 0.03 0.00 99 1011.0
20260506070902 46 112 0.9 4.3 0.00 0.03 0.00 99 1011.0
20260506061902 42 102 0.0 2.6 0.00 0.03 0.00 99 1011.2
20260506060902 40 104 0.0 2.6 0.00 0.03 0.00 99 1011.2
20260506050900 40 77 0.0 2.6 0.00 0.03 0.00 99 1011.0
20260506044900 41 53 0.0 1.7 0.00 0.03 0.00 99 1010.8
20260506043900 41 81 0.0 0.9 0.00 0.03 0.00 99 1010.9
20260506042900 42 104 0.0 2.6 0.00 0.03 0.00 99 1010.9
20260506041646 42 113 0.0 2.6 0.00 0.03 0.00 99 1011.0
20260506040646 42 111 0.0 0.9 0.00 0.03 0.00 99 1011.1
20260506035645 42 123 0.0 0.9 0.00 0.03 0.00 99 1011.1
20260506034645 42 57 0.0 1.7 0.00 0.03 0.00 99 1011.1
20260506033646 42 101 0.0 2.6 0.00 0.03 0.00 99 1011.2
20260506032645 41 97 0.0 2.6 0.00 0.03 0.00 99 1011.1
20260506031645 41 99 0.0 2.6 0.00 0.03 0.00 99 1011.3
20260506030645 41 85 0.9 2.6 0.00 0.03 0.00 99 1011.2
20260506025645 41 74 1.7 2.6 0.00 0.03 0.00 99 1011.2
20260506024645 41 75 0.0 1.7 0.00 0.03 0.00 99 1011.1
20260506023645 41 68 0.0 2.6 0.00 0.03 0.00 99 1011.0
20260506022645 41 121 0.0 0.9 0.00 0.03 0.00 99 1011.2
20260506021645 41 124 0.0 1.7 0.00 0.03 0.00 99 1011.2
20260506020645 40 133 0.0 1.7 0.00 0.03 0.00 99 1011.4
20260506015645 40 122 0.0 1.7 0.00 0.03 0.00 99 1011.4
20260506014645 40 97 0.0 2.6 0.00 0.03 0.00 99 1011.4
20260506013645 41 103 0.9 2.6 0.00 0.03 0.00 99 1011.4
20260506012645 41 93 0.0 2.6 0.00 0.03 0.00 98 1011.2
20260506011645 41 102 1.7 2.6 0.00 0.03 0.00 98 1011.4
20260506010645 42 19 0.0 1.7 0.00 0.03 0.00 97 1011.3
20260506005645 42 78 0.0 1.7 0.00 0.03 0.00 97 1011.5
20260506004645 42 123 0.0 1.7 0.00 0.03 0.00 96 1011.4
20260506003645 42 109 0.0 2.6 0.00 0.03 0.00 96 1011.4
20260506002645 42 162 0.0 1.7 0.00 0.03 0.00 96 1011.6
20260506001645 43 159 0.0 0.9 0.00 0.03 0.00 96 1011.8
20260506000645 44 141 0.0 2.6 0.00 0.03 0.00 95 1011.7
20260505235645 44 115 0.0 2.6 0.00 0.03 0.00 95 1011.8
20260505234645 44 267 0.0 2.6 0.00 0.03 0.00 96 1011.8
20260505233645 45 256 0.0 3.5 0.00 0.03 0.00 97 1011.7
20260505232646 45 247 0.9 2.6 0.00 0.03 0.00 96 1011.7
20260505231645 45 270 0.0 2.6 0.00 0.03 0.00 95 1011.7
20260505230645 46 269 0.0 2.6 0.00 0.03 0.00 94 1011.7
20260505225645 46 272 0.0 2.6 0.00 0.03 0.00 93 1011.8
20260505224645 46 263 0.0 2.6 0.00 0.03 0.00 93 1011.8
20260505223645 46 271 0.0 2.6 0.00 0.03 0.00 93 1012.0
20260505222645 47 256 0.0 2.6 0.00 0.03 0.00 92 1011.8
20260505221645 47 266 0.0 3.5 0.00 0.03 0.00 91 1012.0
20260505220645 47 238 0.9 2.6 0.00 0.03 0.00 90 1012.0